This demonstration page uses our WeatherBlox Daily Observations layout. Learn more.

Left ArrowRight Arrow

39.12711, -84.51439

Hourly Observations for January 16, 2022

Temp ( °F °C ) Dew Point ( °F °C ) Humidity (%) Winds ( mph kmh ) Pressure ( in mb ) Visibility ( mi km ) Precip ( " mm )
12:53 am 00:53 Clear 24 -4.4 11 -11.7 57 57 NE 7 11 30.21 1023 10 16 0.00 0.00
1:53 am 01:53 Clear 23 -5 12 -11.1 63 63 NE 5 7 30.14 1021 10 16 0.00 0.00
2:53 am 02:53 Clear 23 -5 11 -11.7 60 60 NNE 5 7 30.15 1021 10 16 0.00 0.00
3:53 am 03:53 Clear 22 -5.6 11 -11.7 63 63 NNE 6 9 30.13 1020 10 16 0.00 0.00
4:53 am 04:53 Clear 21 -6.1 11 -11.7 65 65 NNE 6 9 30.10 1019 10 16 0.00 0.00
5:53 am 05:53 Clear 21 -6.1 12 -11.1 68 68 NNE 7 11 30.06 1018 10 16 0.00 0.00
6:53 am 06:53 Clear 21 -6.1 12 -11.1 68 68 NE 7 11 30.05 1018 10 16 0.00 0.00
7:53 am 07:53 Clear 20 -6.7 12 -11.1 71 71 NNE 7 11 30.02 1017 10 16 0.00 0.00
8:53 am 08:53 Sunny 22 -5.6 12 -11.1 66 66 NE 6 9 29.99 1016 10 16 0.00 0.00
9:53 am 09:53 Sunny 24 -4.4 14 -10 65 65 NE 9 15 29.96 1015 10 16 0.00 0.00
10:53 am 10:53 Sunny 26 -3.3 15 -9.4 63 63 ENE 7 11 29.93 1014 10 16 0.00 0.00
11:53 am 11:53 Cloudy 29 -1.7 17 -8.3 61 61 NE 9 15 29.87 1012 10 16 0.00 0.00
12:53 pm 12:53 Cloudy 30 -1.1 19 -7.2 64 64 NE 7 11 29.83 1010 10 16 0.00 0.00
1:53 pm 13:53 Cloudy 31 -0.6 20 -6.7 64 64 N 6 9 29.78 1008 10 16 0.00 0.00
2:53 pm 14:53 Cloudy with Haze 33 0.6 21 -6.1 61 61 N 10 17 29.74 1007 6 10 0.00 0.00
3:53 pm 15:53 Cloudy 33 0.6 22 -5.6 64 64 NNE 12 19 29.71 1006 10 16 0.00 0.00
4:53 pm 16:53 Cloudy with Light Rain 32 0 25 -3.9 75 75 N 9 15 29.70 1006 10 16 0.00 0.00
5:53 pm 17:53 Cloudy with Light Rain 31 -0.6 26 -3.3 82 82 NE 10 17 29.69 1005 10 16 0.00 0.00
6:53 pm 18:53 Cloudy with Light Rain 31 -0.6 27 -2.8 85 85 N 7 11 29.67 1005 4 6 0.00 0.00
7:05 pm 19:05 Cloudy with Light Snow 31 -0.6 28 -2.2 89 89 N 6 9 29.69 1005 2 3 0.00 0.00
7:53 pm 19:53 Mostly Cloudy with Light Snow 30 -1.1 29 -1.7 96 96 N 9 15 29.66 1005 1 2 0.00 0.00
8:53 pm 20:53 Cloudy with Light Snow 30 -1.1 29 -1.7 96 96 NNW 9 15 29.63 1003 2 2 0.00 0.00
9:53 pm 21:53 Cloudy with Light Snow 30 -1.1 28 -2.2 92 92 NNW 7 11 29.62 1003 1 2 0.00 0.00
10:01 pm 22:01 Cloudy with Light Snow 30 -1.1 29 -1.7 96 96 NNW 7 11 29.64 1004 1 1 0.00 0.00
10:08 pm 22:08 Cloudy with Light Snow 30 -1.1 29 -1.7 96 96 NNW 6 9 29.63 1003 1 2 0.00 0.00
10:53 pm 22:53 Cloudy with Light Snow 30 -1.1 29 -1.7 96 96 NW 5 7 29.60 1002 1 2 0.00 0.00
11:01 pm 23:01 Cloudy with Light Snow 30 -1.1 29 -1.7 96 96 Calm 29.61 1003 2 3 0.00 0.00
11:19 pm 23:19 Cloudy with Light Snow 30 -1.1 28 -2.2 92 92 VRB 5 7 29.60 1002 3 5 0.00 0.00
11:53 pm 23:53 Cloudy 31 -0.6 27 -2.8 85 85 WNW 6 9 29.57 1002 10 16 0.00 0.00

Powered by AerisWeather